TimePST,TemperatureF,Dew PointF,Humidity,Sea Level PressureIn,VisibilityMPH,Wind Direction,Wind SpeedMPH,Gust SpeedMPH,PrecipitationIn,Events,Conditions,WindDirDegrees,DateUTC
12:52 AM,-4.0,-9.0,79,30.51,-9999.0,Calm,Calm,-,N/A,,Unknown,0,2013-01-01 08:52:00
1:52 AM,-5.1,-9.0,83,30.52,-9999.0,SSE,4.6,-,N/A,,Unknown,160,2013-01-01 09:52:00
2:52 AM,-8.0,-9.9,91,30.56,-9999.0,Calm,Calm,-,N/A,,Unknown,0,2013-01-01 10:52:00
3:52 AM,-8.0,-11.9,83,30.58,-9999.0,SSW,3.5,-,N/A,,Unknown,200,2013-01-01 11:52:00
4:52 AM,-8.0,-11.9,83,30.58,-9999.0,Calm,Calm,-,N/A,,Unknown,0,2013-01-01 12:52:00
5:52 AM,-2.0,-6.0,83,30.60,-9999.0,Calm,Calm,-,N/A,,Unknown,0,2013-01-01 13:52:00
6:52 AM,-7.1,-9.0,91,30.64,-9999.0,Calm,Calm,-,N/A,,Unknown,0,2013-01-01 14:52:00
7:52 AM,-7.1,-11.9,79,30.67,-9999.0,SSE,4.6,-,N/A,,Unknown,160,2013-01-01 15:52:00
8:52 AM,1.0,-4.0,79,30.66,-9999.0,South,6.9,-,N/A,,Unknown,170,2013-01-01 16:52:00
9:52 AM,8.1,5.0,87,30.67,-9999.0,SSW,3.5,-,N/A,,Unknown,210,2013-01-01 17:52:00
10:52 AM,6.1,-0.0,76,30.67,-9999.0,ENE,8.1,-,N/A,,Unknown,70,2013-01-01 18:52:00
11:52 AM,12.0,6.1,77,30.62,-9999.0,South,8.1,-,N/A,,Unknown,180,2013-01-01 19:52:00
12:52 PM,16.0,7.0,68,30.63,-9999.0,Calm,Calm,-,N/A,,Unknown,0,2013-01-01 20:52:00
1:52 PM,16.0,7.0,68,30.63,-9999.0,ENE,4.6,-,N/A,,Unknown,60,2013-01-01 21:52:00
2:52 PM,16.0,8.1,71,30.63,-9999.0,SSE,3.5,-,N/A,,Unknown,160,2013-01-01 22:52:00
3:52 PM,15.1,7.0,70,30.64,-9999.0,East,5.8,-,N/A,,Unknown,90,2013-01-01 23:52:00
4:52 PM,3.9,-0.9,80,30.68,-9999.0,ENE,6.9,-,N/A,,Unknown,60,2013-01-02 00:52:00
5:52 PM,-2.0,-6.0,83,30.69,-9999.0,West,3.5,-,N/A,,Unknown,280,2013-01-02 01:52:00
6:52 PM,1.9,-2.0,83,30.71,-9999.0,Calm,Calm,-,N/A,,Unknown,0,2013-01-02 02:52:00
7:52 PM,-7.1,-11.0,83,30.74,-9999.0,South,4.6,-,N/A,,Unknown,180,2013-01-02 03:52:00
8:52 PM,-2.9,-8.0,79,30.71,-9999.0,South,3.5,-,N/A,,Unknown,170,2013-01-02 04:52:00
9:52 PM,-4.0,-8.0,83,30.68,-9999.0,South,5.8,-,N/A,,Unknown,180,2013-01-02 05:52:00
10:52 PM,-2.0,-6.0,83,30.67,-9999.0,SSE,5.8,-,N/A,,Unknown,160,2013-01-02 06:52:00
11:52 PM,-2.9,-6.0,87,30.66,-9999.0,Calm,Calm,-,N/A,,Unknown,0,2013-01-02 07:52:00